Location: Newark
(52.3735°N, 16.9806°E)
Time: 21:08:54
(UTC+00:00)

N. Korean satellite - Pass Details

Date: 27 September 2021
Orbit: 450 x 495 km, 97.3° (Epoch: 25 October)

Event Time Altitude Azimuth Distance (km) Brightness Sun altitude
Rises 04:06:53 0° 16° (NNE) 2,530 10.5 -6.9°
Reaches altitude 10° 04:08:58 10° 20° (NNE) 1,655 9.6 -6.6°
Maximum altitude 04:12:29 60° 101° (E) 555 7.2 -6.0°
Drops below altitude 10° 04:16:02 10° 182° (S) 1,666 9.2 -5.5°
Sets 04:18:07 0° 186° (S) 2,548 10.1 -5.2°
